Meath Environmental Platform

Observations for Trim Patrick St

Time AQI Temp °C Hum % Pres Pa CO μg/m³ H₂S μg/m³ NO μg/m³ NO₂ μg/m³ O₃ μg/m³ SO₂ μg/m³ PM1 μg/m³ PM2.5 μg/m³ PM10 μg/m³
Thursday 6 August 2026
04:26 2 12.6 76 38,460 0.32 0 3.55 9.98 32.74 0 8.86 14.02 15.42
04:25 2 12.6 75 38,460 0.31 0.92 3.67 10.57 32.66 0 6.29 11.22 12.34
04:24 2 12.6 76 38,460 0.33 1.02 3.6 11.29 38.43 0 9.71 14.03 15.43
04:23 2 12.6 75 38,460 0.34 0.87 3.69 11.63 37.36 0 9.71 16.19 17.81
04:21 2 12.6 76 38,460 0.36 0.76 3.76 10.47 31.91 0 10.57 16.16 17.77
04:18 2 12.7 74 38,460 0.37 0.58 3.64 9.49 30.31 0 11.43 16.99 18.68
04:17 2 12.7 75 38,460 0.36 0.89 3.62 11.69 38.36 0 14 19.04 20.94
04:16 2 12.8 75 38,460 0.35 0.48 3.62 10.61 39.84 0 11.43 19.04 20.94
04:15 2 12.8 75 38,460 0.35 0.17 3.56 9.58 33.39 0 8.86 15.5 17.04
04:14 2 12.8 74 38,460 0.34 0.25 3.71 10.25 33.15 0 11.43 17.71 19.48
04:13 2 12.8 74 38,460 0.34 0 3.64 10.44 35.19 0 8.86 14.14 15.55
04:12 2 12.8 75 38,460 0.32 0 3.68 10.33 35.3 0 6.29 11.26 12.39
04:11 2 12.8 75 38,460 0.32 0 3.56 9.39 31.78 0 3.71 8.4 9.24
04:10 2 12.9 75 38,460 0.29 0 3.65 9.44 34.27 0 5.43 11.26 12.39
04:09 2 12.9 75 38,460 0.29 0 3.48 8.52 33.34 0 5.43 9.08 9.98
04:08 2 12.9 74 38,460 0.28 0 3.55 9.82 34.08 0 4.57 9.18 10.09
04:07 2 12.9 74 38,460 0.29 0 3.5 10.92 37.2 0 3.71 9.14 10.05
04:06 2 12.9 75 38,460 0.29 0 3.6 10.73 34.38 0 4.57 8.37 9.21
04:05 2 12.9 75 38,460 0.27 0 3.59 8.26 34.4 0 3.71 7.69 8.46
04:04 2 13 75 38,460 0.28 0 3.6 10.33 32.72 0 3.71 6.96 7.66